Location: Sweet Grass
(48.9965°N, 111.9649°W)
Time: 19:32:47
(UTC+00:00)

SPROUT - Pass Details

Date: 01 April 2023
Orbit: 557 x 566 km, 98.0° (Epoch: 31 May)

Event Time Altitude Azimuth Distance (km) Brightness Sun altitude
Exits shadow 07:15:54 11° 28° (NNE) 1,865 ? -36.4°
Drops below altitude 10° 07:16:03 10° 26° (NNE) 1,899 ? -36.4°
Enters shadow 08:17:56 -56° 165° (SSE) 11,234 ? -35.6°
